This is the latest recevied weather packets stored in our database for station/object KC0SIQ-13. If no packets are shown the sender has not sent any weather packets the latest 10 day(s).
| Time | Temp. | Humidity | Pressure | Rain* | Wind** | Luminosity | Snow |
|---|---|---|---|---|---|---|---|
| 1777679694 | 20° C | 20% | 1016.2 hPa | 0 mm | - | 208 W/m² | - |
| 1777679390 | 20° C | 20% | 1016.2 hPa | 0 mm | - | 223 W/m² | - |
| 1777679087 | 19.44° C | 21% | 1016.1 hPa | 0 mm | - | 275 W/m² | - |
| 1777678786 | 20.56° C | 20% | 1016 hPa | 0 mm | - | 84 W/m² | - |
| 1777678483 | 20.56° C | 19% | 1016.1 hPa | 0 mm | - | 258 W/m² | - |
| 1777678178 | 20.56° C | 19% | 1015.9 hPa | 0 mm | - | 269 W/m² | - |
| 1777677876 | 20° C | 20% | 1015.9 hPa | 0 mm | - | 287 W/m² | - |
| 1777677572 | 21.11° C | 18% | 1016.1 hPa | 0 mm | - | 304 W/m² | - |
| 1777677271 | 21.11° C | 19% | 1015.7 hPa | 0 mm | - | 347 W/m² | - |
| 1777676969 | 21.11° C | 18% | 1015.7 hPa | 0 mm | - | 429 W/m² | - |
| 1777676668 | 21.67° C | 17% | 1015.7 hPa | 0 mm | - | 443 W/m² | - |
| 1777676365 | 21.11° C | 18% | 1016 hPa | 0 mm | - | 437 W/m² | - |
| 1777676062 | 20.56° C | 18% | 1015.6 hPa | 0 mm | - | 404 W/m² | - |
| 1777675758 | 20.56° C | 17% | 1015.5 hPa | 0 mm | - | 414 W/m² | - |
| 1777675456 | 21.67° C | 17% | 1015.5 hPa | 0 mm | - | 300 W/m² | - |
| 1777675152 | 22.22° C | 17% | 1015.7 hPa | 0 mm | - | 446 W/m² | - |
| 1777674849 | 22.22° C | 17% | 1015.7 hPa | 0 mm | - | 492 W/m² | - |
| 1777674545 | 22.22° C | 18% | 1015.6 hPa | 0 mm | - | 291 W/m² | - |
| 1777674243 | 22.78° C | 17% | 1015.9 hPa | 0 mm | - | 541 W/m² | - |
| 1777673939 | 22.22° C | 18% | 1016 hPa | 0 mm | - | 534 W/m² | - |
| 1777673635 | 22.78° C | 19% | 1015.6 hPa | 0 mm | - | 524 W/m² | - |
| 1777673334 | 21.67° C | 19% | 1016 hPa | 0 mm | - | 553 W/m² | - |
| 1777673030 | 22.22° C | 19% | 1016.1 hPa | 0 mm | - | 621 W/m² | - |
| 1777672727 | 21.11° C | 19% | 1015.9 hPa | 0 mm | - | 603 W/m² | - |
| 1777672423 | 21.67° C | 19% | 1016.3 hPa | 0 mm | - | 595 W/m² | - |
* Rain latest hour (hover to see other rain measurements)
** Current wind speed in m/s (hover to see current wind gust speed)